This is the latest recevied weather packets stored in our database for station/object LU4FBU-13. If no packets are shown the sender has not sent any weather packets the latest 1 day(s).
| Time | Temp. | Humidity | Pressure | Rain* | Wind** | Luminosity | Snow |
|---|---|---|---|---|---|---|---|
| 1778297481 | 12.78° C | 53% | 1013.4 hPa | 0 mm | - | - | - |
| 1778297174 | 12.78° C | 54% | 1013.5 hPa | 0 mm | - | - | - |
| 1778296861 | 12.78° C | 54% | 1013.2 hPa | 0 mm | - | - | - |
| 1778296241 | 12.78° C | 52% | 1013.3 hPa | 0 mm | - | - | - |
| 1778295621 | 12.78° C | 51% | 1013 hPa | 0 mm | - | - | - |
| 1778295000 | 13.33° C | 49% | 1012.8 hPa | 0 mm | - | - | - |
| 1778294381 | 12.78° C | 48% | 1012.5 hPa | 0 mm | - | - | - |
| 1778293759 | 12.22° C | 49% | 1012.3 hPa | 0 mm | - | - | - |
| 1778293509 | 12.22° C | 49% | 1012 hPa | 0 mm | - | - | - |
| 1778293139 | 11.67° C | 50% | 1011.8 hPa | 0 mm | - | - | - |
| 1778291900 | 10.56° C | 55% | 1011.4 hPa | 0 mm | - | - | - |
| 1778291588 | 10.56° C | 55% | 1011.3 hPa | 0 mm | - | - | - |
| 1778291280 | 10.56° C | 55% | 1011.2 hPa | 0 mm | - | - | - |
| 1778290968 | 10.56° C | 54% | 1011.2 hPa | 0 mm | - | - | - |
| 1778290659 | 10.56° C | 55% | 1011 hPa | 0 mm | - | - | - |
| 1778290039 | 10.56° C | 53% | 1010.9 hPa | 0 mm | - | - | - |
| 1778289727 | 11.11° C | 52% | 1010.6 hPa | 0 mm | - | - | - |
| 1778289416 | 11.11° C | 51% | 1010.5 hPa | 0 mm | - | - | - |
| 1778289108 | 11.11° C | 51% | 1010.3 hPa | 0 mm | - | - | - |
| 1778288797 | 11.67° C | 50% | 1010.2 hPa | 0 mm | - | - | - |
| 1778288177 | 11.11° C | 51% | 1009.8 hPa | 0 mm | - | - | - |
| 1778287557 | 11.11° C | 50% | 1009.9 hPa | 0 mm | - | - | - |
| 1778287246 | 11.67° C | 49% | 1009.4 hPa | 0 mm | - | - | - |
| 1778286944 | 11.67° C | 48% | 1009.3 hPa | 0 mm | - | - | - |
| 1778286686 | 11.67° C | 46% | 1009 hPa | 0 mm | - | - | - |
* Rain latest hour (hover to see other rain measurements)
** Current wind speed in m/s (hover to see current wind gust speed)